Regional Weather Roundup
Issued by NWS

Home | Current Version | Previous Version | Text Only | Print | Product List | Glossary On
Versions: 1 2 3 4 5 6 7 8 9 10 11 12 13 14 15 16 17 18 19 20 21 22 23 24 25 26 27 28 29 30 31 32 33 34 35 36 37 38 39 40 41 42 43 44 45 46 47 48 49 50
000
ASUS46 KSEW 270310
RWRWA

WASHINGTON REGIONAL WEATHER ROUNDUP
NATIONAL WEATHER SERVICE SEATTLE WA
800 PM PDT WED APR 26 2017

NOTE:"FAIR" INDICATES FEW OR NO CLOUDS BELOW 12,000 FEET WITH NO
SIGNIFICANT WEATHER AND/OR OBSTRUCTIONS TO VISIBILITY.

WAZ507-509-555>559-270400-
SEATTLE, TACOMA, EVERETT, AND VICINITY

CITY           SKY/WX    TMP DP  RH WIND       PRES   REMARKS
EVERETT        LGT RAIN  45  42  89 CALM      29.91R FOG
BOEING FIELD   CLOUDY    49  44  83 NE10      29.91R
RENTON         CLOUDY    53  39  59 SW8G20    29.91R
SEATAC AIRPORT MOCLDY    50  38  63 SW17G23   29.90R
JBLM-MCCHORD   PTCLDY    51  39  64 SW18G25   29.93R
PUYALLUP         N/A     50  37  62 SW12      29.93R
BREMERTON      NOT AVBL
JBLM-FT LEWIS  PTCLDY    49  38  64 VRB5      29.97R
TACOMA NARROWS PTCLDY    48  38  68 SW13      29.92R
$$

WAZ001-503-506-510-514-515-270400-
NORTH INTERIOR

CITY           SKY/WX    TMP DP  RH WIND       PRES   REMARKS
BELLINGHAM     CLOUDY    53  37  54 SW3       29.86R
FRIDAY HARBOR  PTCLDY    50  38  63 SW10      29.88R
EASTSOUND      CLEAR     50  37  62 SW8G16    29.85R
PORT ANGELES   PTCLDY    47  36  65 NW14      29.91R
EDIZ HOOK      FAIR      49  37  61 W18G29    29.90S
PORT TOWNSEND  MOCLDY    48  39  71 W12G18    29.90R
NAS WHIDBEY    MOCLDY    50  38  63 W28G36    29.92R
ARLINGTON      CLOUDY    45  37  76 S8        29.93R
BURLINGTON     CLEAR     50  36  57 SW12G21   29.88R
$$

WAZ020-022-039-040-504-511-512-270400-
SOUTHWEST INTERIOR

CITY           SKY/WX    TMP DP  RH WIND       PRES   REMARKS
SHELTON        PTCLDY    47  38  71 SW15      29.92R
OLYMPIA        MOCLDY    47  40  76 SW10      29.96R
CHEHALIS       MOCLDY    46  43  87 CALM      29.98R
KELSO          LGT RAIN  49  42  77 W8        30.02R
VANCOUVER      CLOUDY    52  42  69 NW13G20   30.01R
SCAPPOOSE, OR  MOCLDY    48  42  80 W7        30.01R
PORTLAND, OR   MOCLDY    51  41  68 NW12      30.01R
$$

WAZ021-516-517-270400-
WASHINGTON COAST

CITY           SKY/WX    TMP DP  RH WIND       PRES   REMARKS
FORKS          CLOUDY    45  42  89 W6        29.96S
HOQUIAM        MOCLDY    49  40  71 W16       29.99R
ASTORIA, OR    CLOUDY    49  40  71 W10       30.03R
$$

WAZ019-023-024-040-567>569-270400-
CASCADE MOUNTAINS AND COLUMBIA GORGE

CITY           SKY/WX    TMP DP  RH WIND       PRES   REMARKS
STAMPEDE PASS  LGT SNOW  32  32 100 W13G30    29.80S VSB 1   WCI  22
TROUTDALE, OR  CLOUDY    52  44  74 NW6       30.00R
THE DALLES, OR MOCLDY    52  40  63 W9        29.90R
$$

WAZ026-027-041>044-520-521-270400-
EAST SLOPES

CITY           SKY/WX    TMP DP  RH WIND       PRES   REMARKS
OMAK           CLEAR     55  20  25 W21G28    29.64R
WENATCHEE      CLEAR     52  26  36 W24G30    29.71R
ELLENSBURG     CLEAR     46  33  60 NW21G26   29.79S
YAKIMA         PTCLDY    54  32  43 SW14G25   29.79R
SUNNYSIDE ARPT PTCLDY    51  32  48 W15       29.79R
$$

WAZ028-034-035-270400-
COLUMBIA BASIN

CITY           SKY/WX    TMP DP  RH WIND       PRES   REMARKS
EPHRATA        CLEAR     54  26  34 W17       29.71R
MOSES LAKE     CLEAR     55  30  38 W14       29.71R
PASCO          CLEAR     58  29  33 W20G31    29.76R
HERMISTON, OR  CLEAR     52  39  61 SW22G32   29.80R
$$

WAZ036>038-270400-
NORTHEAST WASHINGTON

CITY           SKY/WX    TMP DP  RH WIND       PRES   REMARKS
SPOKANE GEIGER MOCLDY    48  39  71 SW22G32   29.66S
SPOKANE FELTS  CLOUDY    49  40  71 N12       29.68R
FAIRCHILD AFB  MOCLDY    47  42  84 S18       29.65S
COEURDALENE,ID RAIN      44  41  89 S7        29.69R
DEER PARK      CLOUDY    44  39  82 NE3       29.69R
$$

WAZ029>033-270400-
SOUTHEAST WASHINGTON

CITY           SKY/WX    TMP DP  RH WIND       PRES   REMARKS
PULLMAN        PTCLDY    45  38  76 W14       29.75S
LEWISTON, ID   CLOUDY    49  37  63 W12       29.77R
WALLA WALLA    CLOUDY    53  41  63 SW18      29.78S
PENDLETON, OR  LGT RAIN  49  36  61 W29G39    29.80R
$$



USA.gov is the U.S. government's official web portal to all federal, state and local government web resources and services.